Location: Alafon
(8.4500°N, 4.2333°E)
Time: 17:40:21
(UTC+00:00)

A-11 Canister half - Pass Details

Date: 06 August 2021
Orbit: 1515 x 1685 km, 47.2° (Epoch: 19 September)

Event Time Altitude Azimuth Distance (km) Brightness Sun altitude
Rises 14:47:23 0° 263° (W) 4,691 12.2 45.8°
Reaches altitude 10° 14:51:46 10° 281° (W) 3,733 12.1 44.8°
Maximum altitude 14:57:45 18° 321° (NW) 3,163 11.6 43.3°
Drops below altitude 10° 15:03:53 10° 1° (N) 3,817 11.3 41.9°
Sets 15:08:30 0° 19° (NNE) 4,836 11.6 40.8°
